Weather History for Jackson, WY

Change the Weather History Date:

Friday, November 30, 2012

  Actual Average Record
Temperature  
Mean Temperature 35 °F -  
Max Temperature 37 °F 30 °F 51 °F (1999)
Min Temperature 33 °F 5 °F -20 °F (1979)
Degree Days  
Heating Degree Days 30    
Moisture  
Dew Point 32 °F    
Average Humidity 86    
Maximum Humidity 100    
Minimum Humidity 70    
Precipitation  
Precipitation 0.04 in - - ()
Sea Level Pressure  
Sea Level Pressure 29.93 in    
Wind  
Wind Speed 7 mph (SSW)    
Max Wind Speed 10 mph    
Max Gust Speed -    
Visibility 10 miles    
Events Snow    
Averages and records for this station are not official NWS values.
T = Trace of Precipitation, MM = Missing Value Source: NWS Daily Summary

Daily Weather History Graph

Daily Weather History Graph

Search for Another Location

Airport:

Trip Planner

Search our weather history database for the weather conditions in past years. The results will help you decide how hot, cold, wet, or windy it might be!

Date:

Astronomy

Nov. 30, 2012 Rise Set
Actual Time 7:35 AM MST 4:47 PM MST
Civil Twilight 7:03 AM MST 5:19 PM MST
Nautical Twilight 6:28 AM MST 5:55 PM MST
Astronomical Twilight 5:53 AM MST 6:29 PM MST
Moon 6:46 PM MST (11/30) 9:10 AM MST (11/30)
Length of Visible Light 10h 15m
Length of Day
9h 11m
Waning Gibbous, 96% of the Moon is Illuminated
Nov 30
Waning Gibbous
Dec 6
Last Quarter
Dec 13
New
Dec 19
First Quarter
Dec 28
Full

Hourly Weather History & Observations

Time (MST) Temp. Windchill Dew Point Humidity Pressure Visibility Wind Dir Wind Speed Gust Speed Precip Events Conditions
12:15 AM 33.8 °F 28.6 °F 30.2 °F 87% 30.03 in 10.0 mi SSW 5.8 mph - N/A   Overcast
12:35 AM 35.6 °F 30.7 °F 30.2 °F 81% 30.03 in 10.0 mi SSE 5.8 mph - N/A   Overcast
12:55 AM 33.8 °F 29.6 °F 28.4 °F 81% 30.02 in 10.0 mi SSE 4.6 mph - N/A   Overcast
1:15 AM 33.8 °F 27.0 °F 28.4 °F 81% 30.02 in 10.0 mi South 8.1 mph - N/A   Overcast
1:35 AM 35.6 °F 28.6 °F 28.4 °F 75% 30.01 in 10.0 mi SSW 9.2 mph - N/A   Overcast
1:55 AM 37.4 °F 31.4 °F 28.4 °F 70% 30.01 in 10.0 mi SSW 8.1 mph - N/A   Overcast
2:15 AM 37.4 °F 30.3 °F 28.4 °F 70% 30.01 in 10.0 mi SSW 10.4 mph - N/A   Overcast
2:35 AM 37.4 °F 31.4 °F 28.4 °F 70% 30.01 in 10.0 mi SSW 8.1 mph - N/A   Overcast
2:55 AM 37.4 °F 32.1 °F 30.2 °F 75% 30.01 in 10.0 mi SSW 6.9 mph - N/A   Overcast
3:15 AM 37.4 °F 32.1 °F 28.4 °F 70% 30.00 in 10.0 mi SSW 6.9 mph - N/A   Overcast
3:35 AM 37.4 °F 31.4 °F 30.2 °F 75% 29.99 in 10.0 mi SW 8.1 mph - N/A   Overcast
3:55 AM 37.4 °F 30.8 °F 28.4 °F 70% 29.98 in 10.0 mi SW 9.2 mph - N/A   Overcast
4:15 AM 37.4 °F 31.4 °F 28.4 °F 70% 29.97 in 10.0 mi SW 8.1 mph - N/A   Overcast
4:35 AM 37.4 °F 32.8 °F 28.4 °F 70% 29.97 in 10.0 mi SW 5.8 mph - N/A   Overcast
4:55 AM 35.6 °F 32.8 °F 30.2 °F 81% 29.97 in 10.0 mi South 3.5 mph - N/A   Overcast
5:15 AM 35.6 °F 31.7 °F 30.2 °F 81% 29.96 in 10.0 mi South 4.6 mph - N/A   Overcast
5:35 AM 35.6 °F - 28.4 °F 75% 29.96 in 10.0 mi Calm Calm - N/A   Overcast
5:55 AM 35.6 °F 32.8 °F 28.4 °F 75% 29.96 in 10.0 mi SE 3.5 mph - N/A   Overcast
6:15 AM 35.6 °F 31.7 °F 30.2 °F 81% 29.95 in 10.0 mi South 4.6 mph - N/A   Overcast
6:35 AM 35.6 °F 29.9 °F 30.2 °F 81% 29.95 in 10.0 mi SW 6.9 mph - N/A   Overcast
6:51 AM 35.6 °F 30.7 °F 30.2 °F 81% 29.95 in 10.0 mi SSW 5.8 mph - N/A   Overcast
7:53 AM 35.6 °F - 30.2 °F 81% 29.94 in 10.0 mi Calm Calm - N/A   Overcast
9:52 AM 37.4 °F 30.3 °F 33.8 °F 87% 29.94 in 7.0 mi South 10.4 mph - N/A   Overcast
9:53 AM 37.4 °F 32.1 °F 30.2 °F 75% 29.94 in 10.0 mi SW 6.9 mph - N/A   Overcast
10:51 AM 35.6 °F 29.2 °F 35.6 °F 100% 29.94 in 7.0 mi SW 8.1 mph - N/A   Overcast
11:51 AM 35.6 °F 28.0 °F 35.6 °F 100% 29.92 in 7.0 mi SW 10.4 mph - N/A   Overcast
12:51 PM 35.6 °F 28.6 °F 35.6 °F 100% 29.87 in 7.0 mi SW 9.2 mph - N/A   Overcast
1:51 PM 37.4 °F 30.8 °F 37.4 °F 100% 29.86 in 8.0 mi SSW 9.2 mph - N/A   Overcast
2:51 PM 37.4 °F 30.3 °F 37.4 °F 100% 29.86 in 8.0 mi SSW 10.4 mph - N/A Snow Snow
3:51 PM 37.4 °F 30.8 °F 37.4 °F 100% 29.87 in 8.0 mi South 9.2 mph - N/A Snow Snow
4:53 PM 37.4 °F 32.8 °F 37.4 °F 100% 29.88 in 7.0 mi SSW 5.8 mph - N/A   Overcast
5:51 PM 35.6 °F 30.7 °F 35.6 °F 100% 29.87 in 10.0 mi SSW 5.8 mph - N/A   Overcast
6:54 PM 35.6 °F 28.6 °F 35.6 °F 100% 29.87 in 10.0 mi SW 9.2 mph - N/A   Overcast
7:53 PM 35.6 °F 29.2 °F 35.6 °F 100% 29.88 in 10.0 mi SSW 8.1 mph - N/A Snow Snow
8:51 PM 35.6 °F 29.9 °F 33.8 °F 93% 29.88 in 10.0 mi SW 6.9 mph - N/A Snow Snow
9:15 PM 35.6 °F 29.2 °F 33.8 °F 93% 29.87 in 10.0 mi WSW 8.1 mph - N/A   Overcast
9:35 PM 35.6 °F 29.2 °F 33.8 °F 93% 29.87 in 10.0 mi SW 8.1 mph - N/A   Overcast
9:55 PM 35.6 °F 29.2 °F 33.8 °F 93% 29.87 in 10.0 mi SW 8.1 mph - N/A   Overcast
10:15 PM 35.6 °F 29.2 °F 33.8 °F 93% 29.86 in 10.0 mi SW 8.1 mph - N/A   Overcast
10:35 PM 35.6 °F 28.6 °F 33.8 °F 93% 29.86 in 10.0 mi SW 9.2 mph - N/A   Overcast
10:55 PM 35.6 °F 28.6 °F 33.8 °F 93% 29.87 in 10.0 mi SW 9.2 mph - N/A   Overcast
11:15 PM 35.6 °F 28.6 °F 33.8 °F 93% 29.87 in 10.0 mi SW 9.2 mph - 0.02 in   Overcast
11:35 PM 35.6 °F 29.2 °F 35.6 °F 100% 29.88 in 10.0 mi SW 8.1 mph - 0.04 in   Mostly Cloudy
11:55 PM 35.6 °F 29.2 °F 35.6 °F 100% 29.88 in 10.0 mi SW 8.1 mph - 0.04 in   Mostly Cloudy